QPF
0.00 0.00 0.00 0.00 0.00 0.00 0.00 0.01 0.02 0.02 0.01 0.00 0.00 0.00 0.00 0.00 0.00 0.00 0.00 0.01 0.01 0.01 0.01 0.01 0.01 0.01 0.01 0.00 0.00 0.00 0.00 0.00 0.00 0.00 0.01 0.01 0.01 0.01 0.02 0.03 0.02 0.02 0.01 0.01
0.00 0.00 0.00 0.00 0.00 0.00 0.00 0.01 0.00 0.00 0.01 0.00 0.00 0.00 0.00 0.00 0.01 0.01 0.01 0.01 0.01 0.00 0.00 0.00 0.00 0.00 0.00 0.00 0.00 0.00 0.00 0.00 0.00 0.00 0.00 0.00 0.01 0.01 0.02 0.03 0.04 0.03 0.02 0.02
0.00 0.00 0.00 0.01 0.00 0.00 0.00 0.00 0.00 0.00 0.00 0.00 0.00 0.01 0.01 0.01 0.01 0.01 0.01 0.00 0.00 0.00 0.00 0.00 0.00 0.00 0.00 0.00 0.00 0.00 0.00 0.00 0.00 0.00 0.00 0.00 0.01 0.01 0.02 0.04 0.05 0.06 0.05 0.04
0.00 0.00 0.01 0.01 0.00 0.00 0.00 0.00 0.00 0.00 0.00 0.00 0.01 0.01 0.01 0.01 0.01 0.00 0.00 0.00 0.00 0.00 0.00 0.00 0.00 0.00 0.00 0.00 0.00 0.00 0.00 0.00 0.00 0.01 0.01 0.01 0.01 0.02 0.04 0.05 0.07 0.08 0.08 0.08
0.00 0.00 0.01 0.00 0.00 0.00 0.00 0.00 0.00 0.00 0.00 0.00 0.00 0.00 0.00 0.00 0.00 0.00 0.00 0.00 0.00 0.00 0.00 0.00 0.00 0.00 0.00 0.00 0.00 0.00 0.00 0.00 0.00 0.00 0.00 0.01 0.01 0.03 0.05 0.07 0.09 0.10 0.11 0.11
0.00 0.00 0.00 0.00 0.00 0.00 0.00 0.02 0.01 0.00 0.00 0.00 0.00 0.00 0.00 0.00 0.00 0.00 0.00 0.00 0.00 0.00 0.00 0.00 0.00 0.00 0.00 0.00 0.00 0.00 0.00 0.01 0.01 0.01 0.01 0.01 0.02 0.04 0.06 0.09 0.13 0.15 0.15 0.15
0.00 0.00 0.00 0.00 0.00 0.00 0.00 0.01 0.00 0.00 0.00 0.00 0.00 0.00 0.00 0.00 0.00 0.00 0.00 0.00 0.00 0.00 0.00 0.00 0.00 0.00 0.01 0.00 0.01 0.01 0.00 0.01 0.01 0.02 0.03 0.02 0.03 0.05 0.08 0.11 0.16 0.19 0.19 0.19
0.00 0.01 0.01 0.00 0.00 0.00 0.00 0.00 0.00 0.00 0.00 0.00 0.00 0.00 0.00 0.00 0.00 0.00 0.00 0.00 0.00 0.00 0.00 0.00 0.00 0.01 0.01 0.01 0.01 0.01 0.01 0.01 0.01 0.02 0.02 0.01 0.03 0.07 0.10 0.13 0.20 0.25 0.27 0.26
0.00 0.00 0.00 0.00 0.00 0.00 0.00 0.00 0.00 0.00 0.00 0.00 0.00 0.00 0.00 0.00 0.00 0.00 0.00 0.00 0.00 0.00 0.00 0.00 0.00 0.01 0.01 0.01 0.02 0.02 0.02 0.02 0.02 0.02 0.02 0.03 0.04 0.07 0.11 0.15 0.21 0.29 0.34 0.35
0.00 0.00 0.00 0.00 0.00 0.00 0.00 0.00 0.00 0.00 0.00 0.00 0.00 0.00 0.00 0.00 0.00 0.00 0.00 0.00 0.00 0.00 0.00 0.00 0.01 0.01 0.01 0.01 0.02 0.03 0.03 0.03 0.02 0.03 0.03 0.03 0.05 0.07 0.08 0.12 0.20 0.30 0.34 0.35
0.00 0.00 0.00 0.00 0.00 0.00 0.00 0.00 0.00 0.00 0.00 0.00 0.00 0.00 0.00 0.00 0.00 0.00 0.00 0.00 0.00 0.00 0.00 0.01 0.01 0.01 0.01 0.02 0.03 0.03 0.03 0.03 0.03 0.03 0.03 0.03 0.05 0.06 0.07 0.09 0.15 0.27 0.33 0.34
0.00 0.00 0.00 0.00 0.00 0.00 0.00 0.00 0.00 0.00 0.00 0.00 0.00 0.00 0.00 0.00 0.00 0.00 0.00 0.00 0.00 0.00 0.01 0.01 0.01 0.01 0.01 0.02 0.04 0.04 0.04 0.03 0.03 0.04 0.05 0.05 0.06 0.08 0.06 0.06 0.10 0.19 0.27 0.31
0.00 0.00 0.00 0.00 0.00 0.00 0.00 0.00 0.00 0.00 0.00 0.00 0.00 0.00 0.00 0.00 0.00 0.00 0.00 0.00 0.00 0.01 0.01 0.01 0.02 0.02 0.02 0.04 0.04 0.05 0.05 0.05 0.05 0.06 0.07 0.08 0.09 0.11 0.10 0.09 0.13 0.17 0.20 0.25
0.00 0.00 0.00 0.00 0.00 0.00 0.00 0.00 0.00 0.00 0.00 0.00 0.00 0.00 0.00 0.00 0.00 0.00 0.00 0.00 0.01 0.01 0.01 0.02 0.03 0.03 0.04 0.05 0.05 0.05 0.05 0.05 0.06 0.07 0.09 0.10 0.11 0.12 0.13 0.15 0.19 0.20 0.18 0.20
0.00 0.00 0.00 0.00 0.00 0.00 0.00 0.00 0.00 0.00 0.00 0.00 0.00 0.00 0.00 0.00 0.00 0.00 0.00 0.01 0.02 0.02 0.02 0.03 0.04 0.05 0.06 0.06 0.06 0.06 0.06 0.06 0.06 0.07 0.10 0.11 0.13 0.14 0.15 0.18 0.19 0.18 0.18 0.21
0.00 0.00 0.00 0.00 0.00 0.00 0.00 0.00 0.00 0.00 0.00 0.00 0.00 0.00 0.00 0.00 0.00 0.00 0.01 0.02 0.03 0.03 0.04 0.05 0.06 0.07 0.08 0.08 0.09 0.09 0.08 0.07 0.09 0.12 0.14 0.13 0.14 0.17 0.17 0.21 0.21 0.18 0.16 0.18
0.00 0.00 0.00 0.00 0.00 0.00 0.00 0.00 0.00 0.00 0.00 0.00 0.00 0.00 0.00 0.00 0.01 0.01 0.01 0.02 0.03 0.04 0.06 0.07 0.07 0.08 0.09 0.10 0.11 0.10 0.08 0.08 0.10 0.14 0.16 0.12 0.13 0.16 0.18 0.20 0.19 0.16 0.14 0.15
0.00 0.00 0.00 0.00 0.00 0.00 0.00 0.00 0.00 0.00 0.00 0.00 0.00 0.00 0.00 0.01 0.01 0.02 0.03 0.03 0.05 0.06 0.05 0.07 0.08 0.09 0.09 0.09 0.09 0.09 0.08 0.08 0.09 0.12 0.15 0.14 0.14 0.16 0.18 0.18 0.16 0.15 0.14 0.15
0.00 0.00 0.00 0.00 0.00 0.00 0.00 0.00 0.00 0.00 0.00 0.00 0.00 0.00 0.01 0.01 0.02 0.04 0.05 0.06 0.10 0.11 0.09 0.09 0.10 0.10 0.09 0.08 0.08 0.09 0.10 0.11 0.13 0.13 0.16 0.16 0.14 0.16 0.16 0.16 0.15 0.13 0.12 0.13
0.00 0.00 0.00 0.00 0.00 0.00 0.00 0.00 0.00 0.00 0.00 0.00 0.00 0.00 0.01 0.02 0.03 0.06 0.07 0.08 0.12 0.14 0.13 0.12 0.10 0.08 0.08 0.08 0.08 0.08 0.08 0.10 0.12 0.14 0.17 0.17 0.14 0.14 0.13 0.13 0.12 0.10 0.10 0.10
0.00 0.00 0.00 0.00 0.00 0.00 0.00 0.00 0.00 0.00 0.00 0.00 0.00 0.01 0.02 0.03 0.04 0.07 0.11 0.13 0.12 0.12 0.11 0.10 0.09 0.08 0.07 0.07 0.06 0.05 0.05 0.07 0.10 0.12 0.15 0.16 0.13 0.10 0.10 0.10 0.10 0.08 0.08 0.07
0.00 0.00 0.00 0.00 0.00 0.00 0.00 0.00 0.00 0.00 0.00 0.00 0.00 0.02 0.04 0.04 0.05 0.08 0.10 0.14 0.16 0.16 0.12 0.09 0.08 0.07 0.05 0.05 0.05 0.05 0.05 0.07 0.08 0.09 0.12 0.12 0.11 0.09 0.09 0.09 0.08 0.06 0.05 0.05
0.00 0.00 0.00 0.00 0.00 0.00 0.00 0.00 0.00 0.00 0.00 0.00 0.01 0.03 0.05 0.07 0.08 0.13 0.15 0.15 0.17 0.17 0.14 0.10 0.07 0.05 0.04 0.05 0.05 0.04 0.04 0.05 0.07 0.08 0.09 0.11 0.10 0.08 0.07 0.07 0.05 0.04 0.03 0.03
0.00 0.00 0.00 0.00 0.00 0.00 0.00 0.00 0.00 0.00 0.00 0.00 0.01 0.03 0.06 0.09 0.10 0.12 0.14 0.16 0.16 0.16 0.14 0.11 0.07 0.05 0.05 0.05 0.05 0.04 0.04 0.04 0.06 0.07 0.09 0.10 0.08 0.06 0.06 0.06 0.05 0.03 0.02 0.01
0.00 0.00 0.00 0.00 0.00 0.00 0.00 0.00 0.00 0.00 0.00 0.01 0.01 0.02 0.04 0.08 0.12 0.12 0.12 0.12 0.13 0.14 0.13 0.12 0.09 0.06 0.06 0.06 0.05 0.05 0.05 0.06 0.07 0.08 0.09 0.07 0.06 0.05 0.05 0.05 0.05 0.03 0.01 0.01
0.00 0.00 0.00 0.00 0.00 0.00 0.00 0.00 0.00 0.00 0.01 0.01 0.02 0.02 0.03 0.05 0.08 0.08 0.09 0.10 0.10 0.12 0.12 0.11 0.10 0.08 0.07 0.07 0.07 0.07 0.06 0.06 0.06 0.06 0.05 0.05 0.06 0.05 0.05 0.04 0.03 0.02 0.01 0.01
0.00 0.00 0.00 0.00 0.00 0.00 0.00 0.00 0.00 0.00 0.01 0.02 0.02 0.03 0.04 0.05 0.06 0.06 0.08 0.09 0.09 0.11 0.12 0.12 0.11 0.10 0.10 0.09 0.09 0.08 0.07 0.06 0.06 0.05 0.05 0.06 0.06 0.05 0.05 0.03 0.02 0.01 0.00 0.00
MSLP
1012.13 1012.22 1012.39 1012.63 1012.94 1013.31 1013.72 1014.13 1014.53 1014.89 1015.21 1015.47 1015.67 1015.80 1015.88 1015.90 1015.85 1015.74 1015.56 1015.31 1015.02 1014.68 1014.31 1013.95 1013.59 1013.25 1012.94 1012.65 1012.36 1012.07 1011.75 1011.37 1010.95 1010.46 1009.93 1009.39 1008.85 1008.34 1007.91 1007.55 1007.27 1007.08 1006.95 1006.85
1012.50 1012.68 1012.92 1013.22 1013.57 1013.96 1014.36 1014.74 1015.10 1015.40 1015.65 1015.82 1015.93 1015.97 1015.94 1015.85 1015.69 1015.48 1015.22 1014.91 1014.55 1014.17 1013.77 1013.38 1013.00 1012.65 1012.33 1012.02 1011.73 1011.43 1011.11 1010.74 1010.34 1009.88 1009.40 1008.89 1008.40 1007.95 1007.55 1007.23 1006.98 1006.81 1006.70 1006.62
1013.02 1013.29 1013.61 1013.96 1014.35 1014.74 1015.12 1015.45 1015.74 1015.95 1016.08 1016.14 1016.11 1016.02 1015.86 1015.64 1015.38 1015.07 1014.72 1014.34 1013.92 1013.50 1013.07 1012.65 1012.24 1011.87 1011.52 1011.19 1010.88 1010.57 1010.24 1009.89 1009.51 1009.11 1008.68 1008.24 1007.82 1007.43 1007.09 1006.81 1006.59 1006.44 1006.34 1006.28
1013.67 1014.02 1014.40 1014.79 1015.19 1015.56 1015.89 1016.15 1016.33 1016.42 1016.41 1016.32 1016.14 1015.90 1015.61 1015.27 1014.90 1014.50 1014.07 1013.63 1013.18 1012.71 1012.26 1011.81 1011.38 1010.97 1010.59 1010.24 1009.90 1009.58 1009.25 1008.92 1008.57 1008.21 1007.84 1007.47 1007.11 1006.78 1006.49 1006.25 1006.05 1005.91 1005.81 1005.76
1014.39 1014.79 1015.21 1015.62 1015.99 1016.32 1016.56 1016.72 1016.77 1016.71 1016.55 1016.30 1015.98 1015.60 1015.17 1014.73 1014.26 1013.79 1013.31 1012.83 1012.35 1011.87 1011.39 1010.93 1010.48 1010.05 1009.64 1009.27 1008.91 1008.57 1008.24 1007.92 1007.60 1007.28 1006.96 1006.64 1006.34 1006.05 1005.79 1005.56 1005.37 1005.22 1005.12 1005.06
1015.12 1015.54 1015.95 1016.34 1016.66 1016.90 1017.04 1017.07 1016.98 1016.77 1016.46 1016.06 1015.60 1015.09 1014.56 1014.03 1013.50 1012.98 1012.47 1011.97 1011.48 1010.99 1010.51 1010.04 1009.59 1009.15 1008.73 1008.33 1007.97 1007.62 1007.30 1006.99 1006.69 1006.39 1006.11 1005.82 1005.55 1005.28 1005.03 1004.80 1004.60 1004.44 1004.32 1004.24
1015.80 1016.19 1016.56 1016.88 1017.12 1017.25 1017.27 1017.16 1016.92 1016.57 1016.12 1015.59 1015.01 1014.41 1013.81 1013.21 1012.64 1012.10 1011.57 1011.07 1010.58 1010.10 1009.63 1009.17 1008.71 1008.27 1007.86 1007.46 1007.10 1006.76 1006.44 1006.15 1005.87 1005.60 1005.33 1005.06 1004.79 1004.53 1004.27 1004.03 1003.81 1003.63 1003.49 1003.41
1016.35 1016.69 1016.99 1017.21 1017.34 1017.35 1017.23 1016.99 1016.61 1016.14 1015.57 1014.94 1014.29 1013.62 1012.97 1012.34 1011.75 1011.19 1010.66 1010.16 1009.68 1009.20 1008.74 1008.29 1007.84 1007.42 1007.01 1006.63 1006.29 1005.96 1005.67 1005.40 1005.14 1004.88 1004.63 1004.37 1004.10 1003.83 1003.56 1003.31 1003.08 1002.88 1002.74 1002.67
1016.76 1017.02 1017.22 1017.33 1017.33 1017.21 1016.96 1016.59 1016.11 1015.53 1014.88 1014.19 1013.48 1012.78 1012.10 1011.46 1010.86 1010.30 1009.77 1009.26 1008.77 1008.30 1007.83 1007.38 1006.95 1006.53 1006.15 1005.80 1005.48 1005.19 1004.92 1004.68 1004.44 1004.21 1003.97 1003.72 1003.45 1003.18 1002.92 1002.66 1002.43 1002.25 1002.13 1002.09
1017.01 1017.17 1017.26 1017.25 1017.13 1016.88 1016.52 1016.04 1015.47 1014.83 1014.13 1013.40 1012.68 1011.97 1011.29 1010.65 1010.04 1009.46 1008.91 1008.39 1007.88 1007.38 1006.90 1006.43 1006.00 1005.59 1005.22 1004.90 1004.61 1004.36 1004.14 1003.93 1003.72 1003.52 1003.30 1003.06 1002.81 1002.56 1002.31 1002.08 1001.88 1001.74 1001.67 1001.69
1017.12 1017.18 1017.15 1017.02 1016.78 1016.43 1015.97 1015.42 1014.79 1014.10 1013.39 1012.66 1011.94 1011.25 1010.57 1009.93 1009.31 1008.71 1008.13 1007.56 1007.00 1006.46 1005.93 1005.44 1004.98 1004.57 1004.21 1003.91 1003.65 1003.44 1003.25 1003.08 1002.92 1002.74 1002.55 1002.34 1002.13 1001.91 1001.70 1001.52 1001.39 1001.32 1001.33 1001.43
1017.11 1017.08 1016.94 1016.70 1016.36 1015.91 1015.38 1014.78 1014.12 1013.43 1012.72 1012.01 1011.32 1010.64 1009.98 1009.33 1008.69 1008.05 1007.42 1006.78 1006.15 1005.54 1004.95 1004.41 1003.91 1003.48 1003.12 1002.82 1002.59 1002.41 1002.25 1002.12 1001.99 1001.85 1001.69 1001.53 1001.35 1001.19 1001.04 1000.94 1000.89 1000.92 1001.03 1001.23
1017.02 1016.89 1016.67 1016.33 1015.90 1015.39 1014.81 1014.17 1013.51 1012.82 1012.14 1011.47 1010.80 1010.15 1009.49 1008.84 1008.17 1007.48 1006.78 1006.06 1005.34 1004.64 1003.98 1003.37 1002.82 1002.36 1001.98 1001.68 1001.46 1001.30 1001.17 1001.06 1000.96 1000.85 1000.73 1000.60 1000.48 1000.38 1000.31 1000.30 1000.35 1000.48 1000.70 1001.00
1016.88 1016.67 1016.36 1015.95 1015.45 1014.88 1014.27 1013.62 1012.96 1012.30 1011.65 1011.01 1010.37 1009.74 1009.09 1008.41 1007.71 1006.96 1006.18 1005.38 1004.57 1003.78 1003.03 1002.35 1001.75 1001.25 1000.85 1000.54 1000.32 1000.16 1000.05 999.96 999.88 999.79 999.70 999.61 999.54 999.50 999.50 999.58 999.73 999.97 1000.29 1000.68
1016.69 1016.41 1016.03 1015.56 1015.01 1014.41 1013.78 1013.13 1012.48 1011.84 1011.22 1010.61 1010.00 1009.38 1008.72 1008.02 1007.27 1006.46 1005.61 1004.72 1003.83 1002.96 1002.14 1001.39 1000.75 1000.21 999.78 999.47 999.24 999.09 998.98 998.89 998.82 998.74 998.67 998.61 998.58 998.59 998.66 998.81 999.05 999.37 999.78 1000.24
1016.49 1016.15 1015.71 1015.19 1014.61 1013.98 1013.34 1012.69 1012.06 1011.45 1010.85 1010.26 1009.66 1009.03 1008.36 1007.62 1006.82 1005.95 1005.02 1004.07 1003.10 1002.17 1001.29 1000.50 999.82 999.26 998.83 998.51 998.28 998.13 998.02 997.93 997.86 997.79 997.73 997.68 997.67 997.72 997.84 998.04 998.34 998.73 999.19 999.72
1016.26 1015.88 1015.41 1014.86 1014.25 1013.61 1012.97 1012.33 1011.70 1011.10 1010.51 1009.93 1009.32 1008.67 1007.96 1007.19 1006.33 1005.40 1004.41 1003.40 1002.38 1001.40 1000.49 999.68 998.99 998.43 998.00 997.69 997.47 997.32 997.21 997.12 997.05 996.98 996.91 996.87 996.88 996.94 997.09 997.33 997.66 998.09 998.59 999.14
1016.04 1015.63 1015.14 1014.57 1013.96 1013.31 1012.67 1012.03 1011.42 1010.82 1010.22 1009.62 1008.99 1008.30 1007.55 1006.72 1005.80 1004.81 1003.77 1002.71 1001.66 1000.65 999.73 998.93 998.25 997.71 997.30 997.00 996.80 996.66 996.56 996.48 996.40 996.33 996.26 996.22 996.23 996.30 996.46 996.71 997.06 997.50 998.02 998.58
1015.83 1015.42 1014.92 1014.35 1013.74 1013.10 1012.46 1011.83 1011.21 1010.60 1009.99 1009.36 1008.68 1007.95 1007.13 1006.24 1005.26 1004.21 1003.12 1002.02 1000.95 999.94 999.02 998.24 997.58 997.07 996.70 996.44 996.26 996.14 996.05 995.98 995.90 995.83 995.76 995.72 995.72 995.79 995.95 996.21 996.56 997.01 997.52 998.08
1015.65 1015.24 1014.75 1014.20 1013.60 1012.98 1012.35 1011.72 1011.10 1010.48 1009.84 1009.16 1008.44 1007.64 1006.76 1005.79 1004.75 1003.65 1002.51 1001.38 1000.29 999.28 998.38 997.62 997.00 996.52 996.18 995.95 995.80 995.71 995.64 995.57 995.50 995.43 995.36 995.32 995.32 995.39 995.55 995.80 996.15 996.59 997.10 997.65
1015.50 1015.11 1014.64 1014.10 1013.53 1012.93 1012.32 1011.70 1011.07 1010.43 1009.76 1009.05 1008.26 1007.40 1006.46 1005.43 1004.32 1003.17 1001.99 1000.84 999.74 998.73 997.84 997.10 996.50 996.06 995.74 995.53 995.40 995.32 995.26 995.21 995.14 995.08 995.01 994.97 994.98 995.05 995.21 995.45 995.80 996.23 996.73 997.28
1015.35 1014.99 1014.55 1014.04 1013.50 1012.92 1012.33 1011.72 1011.10 1010.45 1009.75 1009.00 1008.18 1007.27 1006.27 1005.18 1004.03 1002.84 1001.63 1000.45 999.34 998.33 997.45 996.72 996.13 995.70 995.39 995.18 995.06 994.98 994.91 994.86 994.79 994.73 994.67 994.63 994.65 994.72 994.88 995.13 995.47 995.90 996.39 996.93
1015.21 1014.87 1014.45 1013.98 1013.46 1012.91 1012.35 1011.76 1011.14 1010.49 1009.79 1009.02 1008.17 1007.23 1006.20 1005.09 1003.91 1002.69 1001.47 1000.28 999.16 998.15 997.26 996.52 995.93 995.48 995.16 994.93 994.78 994.68 994.60 994.52 994.45 994.38 994.32 994.29 994.31 994.39 994.55 994.81 995.15 995.57 996.06 996.59
1015.04 1014.71 1014.32 1013.87 1013.38 1012.86 1012.32 1011.76 1011.16 1010.53 1009.84 1009.08 1008.23 1007.29 1006.26 1005.15 1003.97 1002.76 1001.54 1000.36 999.24 998.22 997.33 996.57 995.95 995.46 995.09 994.82 994.62 994.47 994.35 994.24 994.14 994.05 993.98 993.95 993.98 994.07 994.24 994.50 994.84 995.26 995.74 996.27
1014.83 1014.52 1014.13 1013.70 1013.23 1012.74 1012.23 1011.70 1011.14 1010.54 1009.88 1009.15 1008.34 1007.44 1006.44 1005.36 1004.22 1003.04 1001.85 1000.69 999.59 998.57 997.66 996.88 996.22 995.68 995.24 994.91 994.63 994.41 994.23 994.07 993.93 993.81 993.73 993.69 993.72 993.82 994.00 994.26 994.60 995.02 995.49 996.01
1014.60 1014.28 1013.90 1013.48 1013.02 1012.55 1012.07 1011.57 1011.05 1010.50 1009.90 1009.23 1008.48 1007.64 1006.72 1005.71 1004.64 1003.52 1002.39 1001.27 1000.20 999.19 998.28 997.47 996.76 996.16 995.66 995.23 994.88 994.58 994.32 994.10 993.90 993.75 993.65 993.60 993.62 993.72 993.91 994.17 994.52 994.92 995.39 995.89
1014.36 1014.03 1013.65 1013.22 1012.78 1012.32 1011.87 1011.41 1010.94 1010.45 1009.91 1009.32 1008.66 1007.91 1007.08 1006.18 1005.20 1004.17 1003.12 1002.07 1001.04 1000.06 999.15 998.33 997.58 996.93 996.35 995.85 995.41 995.03 994.69 994.40 994.16 993.96 993.83 993.77 993.78 993.88 994.07 994.33 994.67 995.07 995.52 996.00
Thickness
5741 5742 5736 5724 5717 5713 5707 5702 5695 5693 5683 5667 5655 5648 5644 5638 5633 5629 5625 5621 5618 5615 5613 5612 5611 5609 5608 5607 5607 5605 5605 5605 5606 5607 5610 5613 5617 5622 5627 5632 5637 5642 5645 5648
5731 5734 5727 5710 5700 5698 5691 5686 5682 5674 5663 5654 5645 5637 5629 5623 5617 5614 5612 5610 5608 5605 5603 5600 5598 5596 5594 5592 5590 5589 5588 5588 5589 5590 5592 5595 5598 5604 5609 5614 5620 5625 5630 5635
5726 5724 5714 5695 5681 5679 5676 5672 5666 5658 5649 5640 5632 5624 5619 5614 5611 5608 5604 5600 5596 5592 5587 5584 5581 5578 5575 5574 5572 5571 5570 5570 5570 5571 5572 5575 5579 5584 5589 5594 5601 5608 5614 5620
5721 5713 5692 5672 5677 5669 5663 5661 5654 5644 5636 5629 5622 5619 5615 5612 5605 5598 5591 5584 5579 5574 5570 5566 5563 5559 5556 5554 5551 5550 5549 5550 5550 5551 5553 5555 5558 5563 5568 5574 5581 5589 5597 5604
5710 5703 5683 5666 5664 5657 5649 5650 5645 5633 5627 5622 5617 5611 5611 5606 5592 5581 5573 5567 5561 5556 5551 5547 5542 5539 5536 5534 5532 5531 5531 5531 5532 5533 5535 5536 5539 5544 5550 5556 5563 5572 5580 5588
5699 5685 5679 5652 5654 5651 5640 5637 5631 5623 5614 5608 5601 5594 5595 5586 5574 5565 5558 5551 5545 5540 5536 5532 5528 5524 5521 5520 5519 5518 5518 5518 5519 5519 5520 5522 5525 5529 5534 5540 5548 5556 5565 5573
5685 5676 5663 5652 5651 5646 5631 5626 5619 5610 5602 5594 5586 5578 5575 5569 5560 5550 5543 5537 5532 5529 5526 5523 5520 5516 5514 5513 5512 5512 5512 5512 5512 5512 5512 5514 5517 5520 5524 5530 5537 5544 5552 5561
5675 5663 5648 5646 5643 5629 5620 5616 5608 5600 5592 5584 5576 5569 5561 5552 5545 5538 5533 5529 5524 5521 5520 5518 5516 5513 5512 5512 5511 5510 5509 5508 5508 5509 5509 5513 5515 5517 5519 5523 5528 5536 5542 5550
5662 5654 5645 5641 5630 5623 5615 5604 5597 5589 5581 5572 5564 5556 5548 5541 5535 5530 5526 5524 5521 5519 5518 5516 5514 5511 5509 5510 5508 5507 5506 5506 5506 5507 5508 5510 5512 5514 5517 5520 5525 5532 5537 5543
5653 5649 5641 5634 5626 5617 5606 5595 5587 5579 5570 5561 5551 5544 5538 5532 5528 5525 5522 5520 5518 5516 5514 5513 5511 5509 5507 5506 5505 5504 5504 5504 5504 5505 5507 5509 5511 5514 5517 5520 5524 5529 5534 5538
5644 5640 5632 5628 5616 5605 5596 5588 5579 5570 5559 5549 5541 5535 5529 5526 5523 5521 5519 5517 5514 5512 5511 5510 5508 5506 5505 5503 5501 5501 5500 5501 5501 5503 5505 5507 5510 5513 5515 5518 5522 5524 5530 5533
5635 5628 5617 5612 5606 5597 5588 5579 5570 5561 5552 5542 5533 5527 5524 5521 5519 5517 5515 5513 5511 5509 5507 5506 5504 5503 5502 5500 5498 5497 5497 5498 5498 5500 5502 5505 5508 5511 5512 5513 5515 5517 5519 5524
5628 5622 5613 5606 5599 5591 5580 5572 5563 5552 5543 5536 5530 5524 5520 5518 5516 5514 5512 5510 5507 5505 5502 5500 5499 5498 5497 5496 5494 5493 5493 5493 5493 5495 5498 5500 5503 5507 5511 5513 5511 5513 5516 5519
5622 5613 5605 5599 5592 5583 5574 5565 5556 5546 5537 5530 5525 5521 5517 5515 5514 5511 5509 5506 5503 5500 5497 5495 5493 5493 5492 5491 5490 5490 5490 5490 5489 5491 5494 5496 5499 5503 5506 5510 5516 5520 5518 5518
5617 5608 5600 5593 5586 5578 5568 5559 5550 5542 5534 5528 5522 5518 5514 5511 5509 5507 5504 5501 5497 5494 5492 5490 5489 5489 5488 5487 5486 5486 5486 5487 5488 5489 5491 5493 5497 5500 5504 5509 5516 5522 5524 5522
5611 5604 5596 5587 5578 5570 5561 5552 5542 5535 5529 5523 5519 5515 5511 5507 5504 5502 5499 5495 5491 5489 5487 5486 5486 5486 5484 5483 5483 5483 5485 5486 5486 5487 5489 5492 5496 5501 5505 5510 5516 5522 5526 5527
5603 5596 5588 5579 5571 5563 5553 5543 5535 5528 5522 5519 5515 5511 5508 5504 5501 5497 5493 5489 5485 5484 5484 5484 5484 5483 5482 5482 5481 5483 5485 5487 5487 5488 5491 5495 5499 5504 5509 5514 5520 5525 5530 5533
5598 5590 5582 5572 5564 5556 5548 5539 5530 5522 5517 5514 5511 5507 5503 5499 5495 5491 5488 5485 5483 5483 5483 5482 5481 5480 5480 5481 5481 5482 5485 5489 5490 5492 5495 5499 5504 5509 5513 5519 5525 5530 5533 5534
5594 5586 5577 5568 5558 5549 5541 5533 5525 5518 5514 5510 5506 5502 5498 5494 5490 5487 5484 5482 5480 5481 5482 5480 5476 5477 5480 5482 5482 5485 5488 5491 5494 5497 5500 5503 5509 5514 5518 5525 5530 5535 5539 5541
5589 5581 5573 5564 5555 5544 5535 5528 5520 5515 5510 5506 5503 5500 5497 5492 5488 5485 5483 5480 5478 5477 5477 5476 5477 5479 5482 5484 5485 5489 5492 5495 5498 5502 5507 5512 5518 5522 5527 5533 5538 5543 5546 5549
5584 5576 5568 5559 5550 5540 5531 5523 5516 5512 5508 5505 5501 5497 5493 5490 5487 5484 5483 5483 5483 5480 5478 5478 5480 5482 5484 5485 5488 5494 5497 5500 5504 5509 5514 5520 5526 5532 5538 5543 5549 5552 5555 5558
5579 5571 5562 5554 5546 5537 5529 5521 5515 5510 5507 5504 5501 5497 5492 5490 5488 5486 5484 5482 5483 5480 5481 5484 5486 5486 5487 5489 5497 5501 5505 5509 5513 5517 5523 5529 5535 5541 5548 5553 5557 5561 5563 5567
5573 5565 5558 5550 5542 5534 5527 5520 5514 5508 5506 5502 5500 5496 5491 5488 5486 5486 5487 5487 5486 5485 5488 5491 5489 5490 5491 5501 5507 5511 5515 5519 5524 5529 5534 5540 5546 5553 5558 5562 5565 5568 5570 5573
5569 5561 5554 5547 5539 5533 5526 5520 5513 5509 5506 5503 5500 5496 5492 5491 5491 5490 5489 5490 5491 5492 5497 5498 5496 5498 5501 5512 5517 5522 5526 5530 5535 5540 5546 5552 5558 5563 5567 5570 5573 5575 5578 5580
5565 5557 5552 5544 5538 5532 5525 5519 5515 5511 5508 5505 5502 5499 5495 5492 5491 5494 5495 5497 5498 5501 5507 5509 5509 5510 5517 5523 5528 5532 5536 5540 5546 5551 5557 5562 5567 5572 5575 5577 5580 5582 5584 5586
5561 5556 5549 5541 5535 5529 5523 5517 5513 5510 5507 5505 5503 5501 5498 5497 5497 5498 5500 5503 5505 5508 5513 5517 5521 5525 5530 5535 5539 5543 5547 5551 5557 5563 5568 5572 5576 5579 5581 5584 5586 5588 5590 5591
5560 5555 5549 5542 5536 5527 5520 5514 5511 5508 5506 5502 5501 5501 5500 5499 5500 5501 5504 5507 5510 5515 5519 5522 5527 5532 5537 5542 5547 5551 5556 5560 5565 5570 5574 5578 5582 5585 5587 5588 5591 5592 5593 5594